Mojave, CA

2:38 PM PST on February 12, 2016 (GMT -0800)
Mojave

Weather History for KMHV - May, 2014

Change the Weather History Date:

Friday, May 9, 2014

  Actual Average (KPMD) Record (KPMD)
Temperature  
Mean Temperature 62 °F 66 °F  
Max Temperature 69 °F 81 °F 98 °F (2001)
Min Temperature 55 °F 51 °F 36 °F (1950)
Degree Days  
Heating Degree Days 3 3  
Month to date heating degree days 31  
Since 1 July heating degree days 2881  
Cooling Degree Days 0 3  
Month to date cooling degree days 23  
Year to date cooling degree days 46  
Growing Degree Days 12 (Base 50)    
Moisture  
Dew Point 42 °F    
Average Humidity 50    
Maximum Humidity 67    
Minimum Humidity 36    
Precipitation  
Precipitation 0.00 in 0.01 in 0.52 in (1977)
Month to date precipitation 0.11  
Year to date precipitation 5.09  
Snow  
Snow 0.00 in - 0.00 in (1973)
Month to date snowfall  
Since 1 July snowfall  
Snow Depth -    
Sea Level Pressure  
Sea Level Pressure 29.99 in    
Wind  
Wind Speed 31 mph (WSW)    
Max Wind Speed 50 mph    
Max Gust Speed 60 mph    
Visibility 10 miles    
Events      
T = Trace of Precipitation, MM = Missing Value Source: NWS Daily Summary

Daily Weather History Graph

Daily Weather History Graph

Search for Another Location

Airport or City:

Trip Planner

Search our weather history database for the weather conditions in past years. The results will help you decide how hot, cold, wet, or windy it might be!

Date:

Astronomy

May. 09, 2014 Rise Set
Actual Time 5:53 AM PDT 7:44 PM PDT
Civil Twilight 5:26 AM PDT 8:12 PM PDT
Nautical Twilight 4:52 AM PDT 8:46 PM PDT
Astronomical Twilight 4:17 AM PDT 9:21 PM PDT
Moon 2:58 PM PDT (5/9) 2:46 AM PDT (5/9)
Length of Visible Light 14h 46m
Length of Day
13h 51m
Waxing Gibbous, 74% of the Moon is Illuminated
May 9
Waxing Gibbous
May 14
Full
May 21
Last Quarter
May 28
New
Jun 5
First Quarter

Hourly Weather History & Observations

Time (PDT) Temp. Dew Point Humidity Pressure Visibility Wind Dir Wind Speed Gust Speed Precip Events Conditions
12:15 AM 60.8 °F 33.8 °F 36% 30.01 in 10.0 mi WSW 35.7 mph 42.6 mph N/A   Clear
12:35 AM 60.8 °F 35.6 °F 39% 30.02 in 10.0 mi West 31.1 mph 41.4 mph N/A   Clear
12:55 AM 59.0 °F 37.4 °F 45% 30.02 in 10.0 mi WSW 28.8 mph 41.4 mph N/A   Clear
1:15 AM 59.0 °F 37.4 °F 45% 30.01 in 10.0 mi WSW 38.0 mph 43.7 mph N/A   Clear
1:35 AM 59.0 °F 37.4 °F 45% 30.01 in 10.0 mi SW 35.7 mph 44.9 mph N/A   Clear
1:55 AM 59.0 °F 37.4 °F 45% 30.01 in 10.0 mi WSW 36.8 mph 44.9 mph N/A   Clear
2:15 AM 59.0 °F 37.4 °F 45% 30.02 in 10.0 mi WSW 33.4 mph - N/A   Clear
2:35 AM 57.2 °F 37.4 °F 48% 30.02 in 10.0 mi WSW 31.1 mph - N/A   Clear
2:55 AM 57.2 °F 37.4 °F 48% 30.04 in 10.0 mi WSW 27.6 mph - N/A   Clear
3:35 AM 57.2 °F 37.4 °F 48% 30.05 in 10.0 mi West 13.8 mph - N/A   Clear
3:55 AM 55.4 °F 37.4 °F 51% 30.04 in 10.0 mi West 19.6 mph - N/A   Clear
4:15 AM 55.4 °F 37.4 °F 51% 30.04 in 10.0 mi West 20.7 mph - N/A   Clear
4:35 AM 55.4 °F 39.2 °F 54% 30.03 in 10.0 mi WSW 23.0 mph - N/A   Clear
4:55 AM 55.4 °F 39.2 °F 54% 30.03 in 10.0 mi WSW 21.9 mph 29.9 mph N/A   Clear
5:15 AM 55.4 °F 39.2 °F 54% 30.03 in 10.0 mi WSW 24.2 mph 28.8 mph N/A   Clear
5:35 AM 55.4 °F 39.2 °F 54% 30.04 in 10.0 mi WSW 24.2 mph 28.8 mph N/A   Clear
5:55 AM 55.4 °F 41.0 °F 58% 30.05 in 10.0 mi WSW 21.9 mph - N/A   Clear
6:15 AM 55.4 °F 41.0 °F 58% 30.05 in 10.0 mi WSW 24.2 mph - N/A   Clear
6:35 AM 55.4 °F 41.0 °F 58% 30.05 in 10.0 mi WSW 24.2 mph 29.9 mph N/A   Clear
6:55 AM 55.4 °F 41.0 °F 58% 30.06 in 10.0 mi WSW 20.7 mph - N/A   Clear
7:15 AM 55.4 °F 42.8 °F 63% 30.06 in 10.0 mi WSW 23.0 mph - N/A   Clear
7:35 AM 55.4 °F 44.6 °F 67% 30.06 in 10.0 mi WSW 20.7 mph 26.5 mph N/A   Clear
7:55 AM 55.4 °F 44.6 °F 67% 30.06 in 10.0 mi WSW 19.6 mph - N/A   Clear
8:15 AM 55.4 °F 44.6 °F 67% 30.06 in 10.0 mi WSW 23.0 mph 26.5 mph N/A   Clear
8:35 AM 57.2 °F 44.6 °F 63% 30.06 in 10.0 mi WSW 18.4 mph 27.6 mph N/A   Clear
8:55 AM 57.2 °F 46.4 °F 67% 30.06 in 10.0 mi WSW 21.9 mph - N/A   Clear
9:15 AM 57.2 °F 46.4 °F 67% 30.06 in 10.0 mi WSW 19.6 mph - N/A   Clear
9:35 AM 57.2 °F 46.4 °F 67% 30.06 in 10.0 mi WSW 18.4 mph 23.0 mph N/A   Clear
9:55 AM 59.0 °F 44.6 °F 59% 30.06 in 10.0 mi WSW 26.5 mph 32.2 mph N/A   Clear
10:15 AM 59.0 °F 44.6 °F 59% 30.06 in 10.0 mi WSW 23.0 mph 28.8 mph N/A   Clear
10:35 AM 59.0 °F 46.4 °F 63% 30.06 in 10.0 mi WSW 25.3 mph 35.7 mph N/A   Clear
10:55 AM 59.0 °F 46.4 °F 63% 30.06 in 10.0 mi WSW 29.9 mph 34.5 mph N/A   Clear
11:15 AM 59.0 °F 44.6 °F 59% 30.05 in 10.0 mi WSW 32.2 mph 38.0 mph N/A   Clear
11:35 AM 60.8 °F 44.6 °F 55% 30.01 in 10.0 mi WSW 41.4 mph 47.2 mph N/A   Clear
11:55 AM 60.8 °F 44.6 °F 55% 30.01 in 9.0 mi WSW 39.1 mph 51.8 mph N/A   Clear
12:15 PM 60.8 °F 44.6 °F 55% 30.01 in 10.0 mi WSW 38.0 mph 49.5 mph N/A   Clear
12:35 PM 60.8 °F 44.6 °F 55% 29.99 in 10.0 mi WSW 43.7 mph 51.8 mph N/A   Clear
12:55 PM 62.6 °F 44.6 °F 52% 29.98 in 10.0 mi WSW 40.3 mph 54.1 mph N/A   Clear
1:15 PM 62.6 °F 44.6 °F 52% 29.98 in 10.0 mi WSW 35.7 mph 50.6 mph N/A   Clear
1:35 PM 62.6 °F 44.6 °F 52% 29.98 in 10.0 mi WSW 36.8 mph 50.6 mph N/A   Clear
1:55 PM 62.6 °F 44.6 °F 52% 29.97 in 10.0 mi WSW 36.8 mph 47.2 mph N/A   Clear
2:15 PM 64.4 °F 44.6 °F 49% 29.96 in 10.0 mi WSW 35.7 mph 51.8 mph N/A   Clear
2:35 PM 66.2 °F 44.6 °F 46% 29.95 in 10.0 mi WSW 48.3 mph 59.8 mph N/A   Partly Cloudy
2:55 PM 66.2 °F 44.6 °F 46% 29.93 in 8.0 mi WSW 47.2 mph 55.2 mph N/A   Clear
3:15 PM 66.2 °F 44.6 °F 46% 29.92 in 9.0 mi WSW 46.0 mph 58.7 mph N/A   Clear
3:35 PM 66.2 °F 42.8 °F 43% 29.92 in 9.0 mi WSW 49.5 mph 57.5 mph N/A   Clear
3:55 PM 68.0 °F 42.8 °F 40% 29.92 in 10.0 mi WSW 49.5 mph 57.5 mph N/A   Clear
4:15 PM 68.0 °F 41.0 °F 37% 29.94 in 10.0 mi WSW 42.6 mph 50.6 mph N/A   Clear
4:35 PM 68.0 °F 42.8 °F 40% 29.93 in 10.0 mi WSW 42.6 mph 54.1 mph N/A   Clear
4:55 PM 69.8 °F 42.8 °F 38% 29.91 in 10.0 mi WSW 46.0 mph 55.2 mph N/A   Clear
5:15 PM 68.0 °F 42.8 °F 40% 29.89 in 10.0 mi WSW 48.3 mph 56.4 mph N/A   Clear
5:35 PM 66.2 °F 42.8 °F 43% 29.90 in 10.0 mi WSW 42.6 mph 59.8 mph N/A   Clear
5:55 PM 66.2 °F 42.8 °F 43% 29.92 in 10.0 mi West 34.5 mph 59.8 mph N/A   Clear
6:15 PM 66.2 °F 42.8 °F 43% 29.92 in 10.0 mi WSW 35.7 mph 43.7 mph N/A   Clear
6:35 PM 66.2 °F 42.8 °F 43% 29.93 in 10.0 mi West 25.3 mph 47.2 mph N/A   Clear
6:55 PM 66.2 °F 42.8 °F 43% 29.92 in 10.0 mi WSW 27.6 mph 49.5 mph N/A   Clear
7:15 PM 64.4 °F 41.0 °F 42% 29.94 in 10.0 mi WSW 29.9 mph 41.4 mph N/A   Clear
7:35 PM 64.4 °F 41.0 °F 42% 29.94 in 10.0 mi WSW 32.2 mph 55.2 mph N/A   Clear
7:55 PM 64.4 °F 41.0 °F 42% 29.94 in 10.0 mi WSW 31.1 mph 38.0 mph N/A   Clear
8:15 PM 64.4 °F 41.0 °F 42% 29.92 in 10.0 mi WSW 36.8 mph 47.2 mph N/A   Clear
8:35 PM 62.6 °F 41.0 °F 45% 29.92 in 10.0 mi WSW 34.5 mph 46.0 mph N/A   Clear
8:55 PM 62.6 °F 41.0 °F 45% 29.92 in 10.0 mi WSW 39.1 mph 51.8 mph N/A   Clear
9:15 PM 62.6 °F 41.0 °F 45% 29.92 in 10.0 mi WSW 38.0 mph 51.8 mph N/A   Clear
9:35 PM 62.6 °F 41.0 °F 45% 29.93 in 10.0 mi WSW 28.8 mph 40.3 mph N/A   Clear
9:55 PM 62.6 °F 41.0 °F 45% 29.92 in 10.0 mi WSW 39.1 mph 47.2 mph N/A   Clear
10:15 PM 62.6 °F 41.0 °F 45% 29.90 in 10.0 mi WSW 44.9 mph 56.4 mph N/A   Clear
10:35 PM 62.6 °F 41.0 °F 45% 29.96 in 10.0 mi West 21.9 mph 47.2 mph N/A   Unknown
10:55 PM 62.6 °F 41.0 °F 45% 29.96 in 10.0 mi WSW 12.7 mph 26.5 mph N/A   Unknown
11:15 PM 62.6 °F 41.0 °F 45% 29.95 in 10.0 mi WNW 15.0 mph 25.3 mph N/A   Clear
11:35 PM 62.6 °F 41.0 °F 45% 29.96 in 10.0 mi SE 9.2 mph 33.4 mph N/A   Clear
11:55 PM 60.8 °F 41.0 °F 48% 29.95 in 10.0 mi South 19.6 mph 29.9 mph N/A   Clear